Content
SEND FEEDBACK

Daily
Averages
Monthly
Summary
United States of America

GRAYSON LAKE, KENTUCKY


Home > North America > United States > Kentucky
Elevation: 71 feet     Latitude: 38 14N     Longitude: 082 59W

WEATHER
 
SELECT A DAY
Number of Records: 221,456;   Date Range: 1/1/95 - 10/24/14
 
SHARE

PRINT THIS DATA

[ ← Previous Day ]
WEATHER ALMANAC - JANUARY 31, 2013
[ Next Day → ]
[ °C ]   °F
Weather ElementAverageHighLow
Temperature31.6 °F41 °F (9:55 pm)28.4 °F (8:51 am)
Dewpoint24.1 °F35.6 °F (12:47 am)19 °F (6:51 am)
Humidity74.7 %100 % (11:46 pm)53 % (9:55 pm)
Barometer29.86 in29.96 in (3:51 pm)29.56 in (12:47 am)
Wind Speed10.2 mph21.9 mph (1:11 am)
Wind Gust38 mph (1:11 am)
Weather ElementAverage
Visibility5.7 mi
Wind DirectionWSW (244.2 °)

Weather ElementTotal
Precipitation0.20 in
Heating Degree Days30.3 (Base 65)
Averaged from 53 records on January 31, 2013
WEATHER CONDITIONS BREAKOUT
WIND DIRECTION BREAKOUT
WEATHER BY HOUR - JANUARY 31, 2013
[ °C ]   °F
Local TimeTemperatureDewpointHumidityBarometerVisibilityWind DirectionWind SpeedGust SpeedPrecipitationEventsConditions
12:47 AM39.2 °F35.6 °F87 %29.56 in10.0 miWest (260°)12.7 mph20.7 mph0.02 inOvercast
12:51 AM39.2 °F35.6 °F87 %29.57 in10.0 miWSW (250°)15.0 mph21.9 mph0.02 inOvercast
1:11 AM37.4 °F32.0 °F81 %29.58 in10.0 miWest (260°)21.9 mph38.0 mph0.00 inOvercast
1:51 AM37.4 °F32.0 °F81 %29.63 in9.0 miWest (270°)11.5 mph31.1 mph0.00 inSnowLight Snow
2:51 AM35.6 °F26.6 °F70 %29.67 in10.0 miWSW (250°)17.3 mph26.5 mph0.00 inOvercast
3:51 AM33.8 °F24.1 °F68 %29.70 in10.0 miWest (270°)15.0 mph31.1 mph0.00 inOvercast
4:09 AM35.6 °F23.0 °F60 %29.71 in10.0 miWest (270°)13.8 mph25.3 mphOvercast
4:51 AM32.0 °F24.1 °F73 %29.73 in10.0 miWest (260°)13.8 mph23.0 mph0.00 inOvercast
5:51 AM32.0 °F22.1 °F67 %29.76 in10.0 miWest (260°)11.5 mph24.2 mph0.00 inOvercast
5:59 AM33.8 °F21.2 °F60 %29.75 in10.0 miWSW (250°)12.7 mph32.2 mphOvercast
6:32 AM32.0 °F21.2 °F64 %29.79 in5.0 miWSW (250°)11.5 mph24.2 mph0.00 inSnowLight Snow
6:43 AM33.8 °F19.4 °F56 %29.79 in9.0 miWest (260°)16.1 mph29.9 mph0.00 inOvercast
6:51 AM33.1 °F19.0 °F56 %29.80 in10.0 miWest (270°)12.7 mph24.2 mph0.00 inOvercast
7:51 AM30.2 °F19.0 °F63 %29.83 in10.0 miWest (260°)15.0 mph27.6 mph0.00 inOvercast
8:51 AM28.4 °F19.4 °F69 %29.87 in9.0 miWSW (240°)16.1 mph21.9 mph0.00 inOvercast
9:51 AM28.4 °F21.2 °F74 %29.90 in2.5 miWest (260°)6.9 mph20.7 mph0.00 inSnowLight Snow
10:04 AM28.4 °F23.0 °F80 %29.90 in1.0 miWSW (250°)8.1 mph21.9 mph0.00 inSnowLight Snow
10:19 AM28.4 °F24.8 °F86 %29.90 in1.0 miWest (260°)10.4 mph0.00 inSnowLight Snow
10:51 AM28.4 °F24.8 °F86 %29.93 in1.0 miWSW (240°)10.4 mph18.4 mph0.00 inSnowLight Snow
11:08 AM28.4 °F24.8 °F86 %29.91 in6.0 miWest (260°)15.0 mph19.6 mph0.00 inSnowLight Snow
11:45 AM28.4 °F24.8 °F86 %29.92 in1.0 miWest (260°)10.4 mph29.9 mph0.00 inSnowLight Snow
11:51 AM30.2 °F23.0 °F75 %29.94 in0.8 miWest (280°)15.0 mph26.5 mph0.00 inSnowLight Snow
11:55 AM30.2 °F23.0 °F75 %29.93 in4.0 miWNW (290°)11.5 mph23.0 mph0.00 inSnowLight Snow
12:19 PM30.2 °F24.8 °F80 %29.93 in10.0 miWest (260°)11.5 mph34.5 mph0.00 inOvercast
12:51 PM32.0 °F19.4 °F60 %29.94 in10.0 miWest (270°)9.2 mph27.6 mph0.00 inMostly Cloudy
1:51 PM32.0 °F19.4 °F60 %29.94 in10.0 miWest (260°)18.4 mph29.9 mphOvercast
2:51 PM30.2 °F19.4 °F64 %29.95 in6.0 miWest (260°)13.8 mph26.5 mph0.00 inHaze
3:04 PM35.6 °F21.2 °F56 %29.93 in2.0 miSW (230°)10.4 mph23.0 mph0.00 inSnowLight Snow
3:08 PM28.4 °F24.8 °F86 %29.93 in1.2 miWSW (250°)6.9 mph17.3 mph0.00 inSnowLight Snow
3:16 PM28.4 °F24.8 °F86 %29.94 in0.2 miWest (260°)9.2 mph0.00 inFog-SnowSnow
3:34 PM28.4 °F24.8 °F86 %29.94 in2.5 miWest (260°)11.5 mph0.02 inSnowLight Snow
3:49 PM28.4 °F24.8 °F86 %29.93 in2.5 miWSW (250°)9.2 mph21.9 mph0.02 inSnowLight Snow
3:51 PM28.4 °F24.8 °F86 %29.96 in4.0 miWest (270°)11.5 mph21.9 mph0.02 inSnowLight Snow
4:18 PM28.4 °F24.8 °F86 %29.94 in3.0 miWest (260°)9.2 mph20.7 mph0.00 inSnowLight Snow
4:29 PM28.4 °F24.8 °F86 %29.94 in7.0 miWest (260°)10.4 mph17.3 mph0.00 inSnowLight Snow
4:51 PM30.2 °F23.0 °F75 %29.96 in3.0 miWSW (250°)12.7 mph18.4 mph0.00 inSnowLight Snow
5:35 PM30.2 °F23.0 °F75 %29.94 in10.0 miWSW (250°)9.2 mph0.00 inMostly Cloudy
5:51 PM30.2 °F23.0 °F75 %29.95 in10.0 miWSW (240°)8.1 mph0.00 inOvercast
6:51 PM32.0 °F19.0 °F59 %29.94 in10.0 miSW (230°)5.8 mphOvercast
7:51 PM32.0 °F19.9 °F61 %29.95 in10.0 miWSW (240°)5.8 mphOvercast
8:51 PM32.0 °F19.9 °F61 %29.94 in7.0 miSW (230°)8.1 mph0.00 inSnowLight Snow
9:10 PM32.0 °F23.0 °F69 %29.91 in3.0 miSW (220°)8.1 mph0.00 inSnowLight Snow
9:51 PM32.0 °F23.0 °F69 %29.93 in3.0 miSW (220°)9.2 mph0.00 inSnowLight Snow
9:55 PM41.0 °F24.8 °F53 %29.90 in6.0 miSW (230°)5.8 mph0.00 in
10:01 PM30.2 °F24.8 °F80 %29.90 in6.0 miWSW (240°)6.9 mph0.00 inSnowLight Snow
10:16 PM30.2 °F24.8 °F80 %29.90 in6.0 miWest (260°)5.8 mph0.00 inSnowLight Snow
10:26 PM30.2 °F24.8 °F80 %29.89 in1.8 miWest (260°)3.5 mph0.00 inSnowLight Snow
10:51 PM30.2 °F24.8 °F80 %29.91 in1.5 miSW (230°)4.6 mph0.01 inSnowLight Snow
11:03 PM37.4 °F26.6 °F65 %29.88 in1.2 miWSW (240°)3.5 mph0.00 inSnowLight Snow
11:28 PM39.2 °F28.4 °F65 %29.88 in0.8 miWSW (240°)3.5 mph0.02 in
11:46 PM28.4 °F28.4 °F100 %29.87 in1.0 miCalm0.03 inSnowLight Snow
11:51 PM28.4 °F28.0 °F99 %29.90 in1.2 miCalm0.03 inSnowLight Snow
11:57 PM28.4 °F28.4 °F100 %29.88 in0.8 miWNW (290°)4.6 mph0.01 inSnowLight Snow
Hourly data recorded from KHTS, located miles away from Grayson Lake, Kentucky







STORIES FROM OUR PARTNERS